Starlink 32623

operational
NORAD ID: 62152 Int'l Des: 2024-224 Owner: SPXS Country: US Constellation: starlink
LEOCIRCULAR

Über Starlink 32623

Beschreibung wird geladen...

Live-Position

3D-Globus wird geladen...

Nächste Überflüge

Höhenverlauf

Altitude vs Time

uPlot chart will show altitude changes over time

Zweizeiliger Elementsatz

1 62152U 24224P 25304.76017223 .00032767 00000-0 11957-2 0 9992
2 62152 43.0032 169.5434 0001256 250.4235 109.6481 15.27558432 52667
Epoch: 31. Okt. 2025 • Age: 10 hours

Aktueller Status

Höhe 486.9 km
Geschwindigkeit 7.63 km/s
Subsatellitenpunkt 42.94°N, 162.54°E
Startdatum 30. Nov. 2024
Alter 0.9 years
Typ internet

Technische Details

Klassifizierung Payload
Masse 730.00 kg
Trockenmasse 700.00 kg
Gesamtmasse 730.00 kg
Länge 0.30 m
Durchmesser 4.10 m
Spannweite 29.00 m
Form Box + pan
Hersteller SPXS
Bus-Typ Starlink V2M
Phasenstatus In Orbit
Besitzer/Staat SPXS/US

Große Konstellationen

Loading constellations...